Tracking 33470 objects as of 12-Mar-2026
HD Live streaming from Space Station
objects crossing your sky now

COSMOS 2143 DEB

Track COSMOS 2143 DEB now!
10-day predictions


NORAD ID: 57723
Int'l Code: 1991-033L
Perigee: 1,259.7 km
Apogee: 1,563.6 km
Inclination: 82.8 °
Period: 113.9 minutes
Semi major axis: 7782 km
RCS: Unknown
Launch date: May 16, 1991
Source: Commonwealth of Independent States (former USSR) (CIS)
Launch site: PLESETSK MISSILE AND SPACE COMPLEX (PKMTR)

Note: This is SATELLITE DEBRIS
Your satellite tracking list
Your tracking list is empty




NASA's NSSDC Master Catalog

Two Line Element Set (TLE):
1 57723U 91033L   26070.89036018  .00000161  00000-0  76625-3 0  9997
2 57723  82.7906  26.2388 0195248 294.1400  63.9386 12.64475562121973
Source of the keplerian elements: AFSPC